+ View the NASA Portal
+ Center for Near-Earth Object Studies
IMPORTANT:
The SSD Announcement email list is now available. Major changes are coming in the near future, including possible hostname and/or URL changes. To be notified of such changes, subscribe to this email list.
Please visit
this page
for more details.
Don't show this message again
JPL Small-Body Database Browser
Search:
[
help
]
214367 (2005 LC3)
Classification:
Main-belt Asteroid
SPK-ID:
2214367
[
Ephemeris
|
Orbit Diagram
|
Orbital Elements
|
Mission Design
|
Physical Parameters
|
Discovery Circumstances
|
Close-Approach Data
]
[ show orbit diagram ]
Orbital Elements at Epoch 2458600.5 (2019-Apr-27.0) TDB
Reference:
JPL 10
(heliocentric ecliptic J2000)
Element
Value
Uncertainty (1-sigma)
Units
e
.197611718306151
6.5273e-08
a
2.620704432182923
1.5732e-08
au
q
2.10282252616671
1.6627e-07
au
i
10.48684757406479
6.7001e-06
deg
node
124.880753522288
3.0242e-05
deg
peri
151.98572273
3.4073e-05
deg
M
80.33045029441202
1.5454e-05
deg
t
p
2458254.717354786301
(2018-May-16.21735479)
6.5165e-05
TDB
period
1549.620994538241
4.24
1.3954e-05
3.82e-08
d
yr
n
.232314870067486
2.0919e-09
deg/d
Q
3.138586338199136
1.8841e-08
au
Orbit Determination Parameters
# obs. used (total)
164
data-arc span
6702 days (18.35 yr)
first obs. used
2001-07-21
last obs. used
2019-11-26
planetary ephem.
DE431
SB-pert. ephem.
SB431-N16
condition code
0
norm. resid. RMS
.52014
source
ORB
producer
Otto Matic
solution date
2019-Dec-04 16:57:56
Additional Information
Earth MOID
= 1.09201 au
Jupiter MOID
= 2.04283 au
T_jup
= 3.354
[ show covariance matrix ]
[
Ephemeris
|
Orbit Diagram
|
Orbital Elements
|
Mission Design
|
Physical Parameters
|
Discovery Circumstances
|
Close-Approach Data
]
Physical Parameter Table
Parameter
Symbol
Value
Units
Sigma
Reference
Notes
absolute magnitude
H
16.5
n/a
MPO454539
214367 (2005 LC3)
Discovered 2005-Jun-03 by Siding Spring Survey at Siding Spring
Reference:
20090509/Numbers.arc
Last Updated:
2009-05-11
[ show close-approach data ]
Alternate Designations
2005 LC3
= 2001 PV18
[
Ephemeris
|
Orbit Diagram
|
Orbital Elements
|
Mission Design
|
Physical Parameters
|
Discovery Circumstances
|
Close-Approach Data
]
2019-Dec-06 21:34 UT
(server date/time)
Site Manager:
Ryan S. Park
Webmaster
:
Alan B. Chamberlin